Location: Ernez
(36.4595°N, 29.8755°E)
Time: 08:00:03
(UTC+00:00)

Cosmos 2082 Rocket - Pass Details

Date: 13 November 2025
Orbit: 834 x 851 km, 71.0° (Epoch: 04 December)

Event Time Altitude Azimuth Distance (km) Brightness Sun altitude
Rises 17:06:40 0° 342° (NNW) 3,386 5.5 -26.9°
Reaches altitude 10° 17:09:09 10° 346° (NNW) 2,448 4.7 -27.4°
Enters shadow 17:12:09 32° 358° (N) 1,413 3.3 -28.0°
